This is the latest recevied weather packets stored in our database for station/object K4OAM-13. If no packets are shown the sender has not sent any weather packets the latest 10 day(s).
| Time | Temp. | Humidity | Pressure | Rain* | Wind** | Luminosity | Snow |
|---|---|---|---|---|---|---|---|
| 1778229960 | 3.89° C | 98% | 1017.7 hPa | - | - | - | - |
| 1778229360 | 4.44° C | 96% | 1017.7 hPa | - | - | - | - |
| 1778228760 | 4.44° C | 97% | 1017.9 hPa | - | - | - | - |
| 1778228160 | 4.44° C | 96% | 1017.8 hPa | - | - | - | - |
| 1778227560 | 4.44° C | 96% | 1018 hPa | - | - | - | - |
| 1778226960 | 4.44° C | 96% | 1018 hPa | - | - | - | - |
| 1778226360 | 4.44° C | 96% | 1017.9 hPa | - | - | - | - |
| 1778225760 | 4.44° C | 96% | 1018 hPa | - | - | - | - |
| 1778225162 | 4.44° C | 96% | 1017.7 hPa | - | - | - | - |
| 1778224560 | 4.44° C | 96% | 1017.7 hPa | - | - | - | - |
| 1778223959 | 3.89° C | 98% | 1017.9 hPa | - | - | - | - |
| 1778223360 | 3.89° C | 99% | 1018.1 hPa | - | - | - | - |
| 1778222760 | 4.44° C | 97% | 1018.4 hPa | - | - | - | - |
| 1778222160 | 4.44° C | 96% | 1018.5 hPa | - | - | - | - |
| 1778221560 | 3.89° C | 97% | 1018.5 hPa | - | - | - | - |
| 1778220960 | 4.44° C | 96% | 1018.7 hPa | - | - | - | - |
| 1778220360 | 4.44° C | 96% | 1018.7 hPa | - | - | - | - |
| 1778219760 | 4.44° C | 97% | 1018.3 hPa | - | - | - | - |
| 1778219160 | 4.44° C | 95% | 1018.8 hPa | - | - | - | - |
| 1778218560 | 4.44° C | 95% | 1019.1 hPa | - | - | - | - |
| 1778217960 | 4.44° C | 94% | 1019.2 hPa | - | - | - | - |
| 1778217360 | 4.44° C | 91% | 1019.2 hPa | - | - | - | - |
| 1778216760 | 4.44° C | 90% | 1019.4 hPa | - | - | - | - |
| 1778216162 | 4.44° C | 88% | 1019.5 hPa | - | - | - | - |
| 1778215560 | 4.44° C | 87% | 1019.3 hPa | - | - | - | - |
* Rain since midnight (hover to see other rain measurements)
** Current wind speed in m/s (hover to see current wind gust speed)